Terminal Aerodrome Forecast
Issued by NWS

Home | Current Version | Previous Version | Text Only | Print | Product List | Glossary Off
Versions: 1 2 3 4 5 6 7 8 9 10 11 12 13 14 15 16 17 18 19 20 21 22 23 24 25 26 27 28 29 30 31 32 33 34 35 36 37 38 39 40 41 42 43 44 45 46 47 48 49 50

000
FTUS43 KLOT 191700 AAA
TAFGYY
TAF AMD
KGYY 191729Z 1917/2018 22012KT P6SM SCT025 BKN200
      TEMPO 1919/1921 BKN025 BKN250
     FM200600 25010KT P6SM BKN100
     FM201400 30009KT P6SM SCT035=

USA.gov is the U.S. government's official web portal to all federal, state and local government web resources and services.